TimeCDT,TemperatureF,Dew PointF,Humidity,Sea Level PressureIn,VisibilityMPH,Wind Direction,Wind SpeedMPH,Gust SpeedMPH,PrecipitationIn,Events,Conditions,WindDirDegrees,DateUTC
12:15 AM,51.3,39.2,63,30.11,10.0,West,4.6,-,N/A,,Overcast,260,2014-05-14 05:15:00
12:35 AM,50.9,39.4,65,30.12,10.0,WSW,4.6,-,N/A,,Overcast,250,2014-05-14 05:35:00
1:15 AM,50.2,39.6,67,30.11,10.0,West,6.9,-,N/A,,Overcast,270,2014-05-14 06:15:00
1:35 AM,49.1,39.4,69,30.11,10.0,West,4.6,-,N/A,,Mostly Cloudy,280,2014-05-14 06:35:00
1:55 AM,48.6,39.6,71,30.12,10.0,West,5.8,-,N/A,,Mostly Cloudy,280,2014-05-14 06:55:00
2:15 AM,47.8,39.4,72,30.12,10.0,West,6.9,-,N/A,,Mostly Cloudy,280,2014-05-14 07:15:00
2:35 AM,46.9,39.2,74,30.12,10.0,West,4.6,-,N/A,,Scattered Clouds,270,2014-05-14 07:35:00
2:55 AM,46.4,39.2,76,30.12,10.0,West,3.5,-,N/A,,Scattered Clouds,260,2014-05-14 07:55:00
3:15 AM,45.9,39.4,78,30.13,10.0,West,4.6,-,N/A,,Scattered Clouds,270,2014-05-14 08:15:00
3:35 AM,45.9,39.4,78,30.13,10.0,West,4.6,-,N/A,,Scattered Clouds,270,2014-05-14 08:35:00
3:55 AM,45.5,39.2,79,30.14,10.0,West,5.8,-,N/A,,Scattered Clouds,280,2014-05-14 08:55:00
4:15 AM,45.1,39.0,79,30.14,10.0,West,5.8,-,N/A,,Clear,270,2014-05-14 09:15:00
4:35 AM,44.2,38.5,80,30.14,10.0,West,4.6,-,N/A,,Clear,270,2014-05-14 09:35:00
4:55 AM,44.1,38.3,80,30.14,10.0,West,4.6,-,N/A,,Scattered Clouds,260,2014-05-14 09:55:00
5:15 AM,43.5,37.8,80,30.15,10.0,West,4.6,-,N/A,,Clear,270,2014-05-14 10:15:00
5:35 AM,43.0,37.4,81,30.16,10.0,West,3.5,-,N/A,,Clear,260,2014-05-14 10:35:00
6:15 AM,40.3,37.2,89,30.17,10.0,Calm,Calm,-,N/A,,Clear,0,2014-05-14 11:15:00
6:35 AM,43.0,39.9,89,30.18,10.0,Calm,Calm,-,N/A,,Clear,0,2014-05-14 11:35:00
6:55 AM,45.3,38.7,78,30.19,10.0,West,3.5,-,N/A,,Clear,280,2014-05-14 11:55:00
7:15 AM,46.2,37.8,72,30.19,10.0,West,6.9,-,N/A,,Clear,270,2014-05-14 12:15:00
7:35 AM,46.9,38.3,72,30.19,10.0,West,4.6,-,N/A,,Clear,260,2014-05-14 12:35:00
7:55 AM,48.2,37.9,68,30.19,10.0,WNW,4.6,-,N/A,,Clear,300,2014-05-14 12:55:00
8:15 AM,49.1,38.1,66,30.19,10.0,WNW,3.5,-,N/A,,Clear,290,2014-05-14 13:15:00
8:35 AM,50.2,37.4,62,30.19,10.0,WNW,6.9,-,N/A,,Clear,290,2014-05-14 13:35:00
8:55 AM,51.6,37.6,59,30.19,10.0,WNW,3.5,-,N/A,,Clear,300,2014-05-14 13:55:00
9:35 AM,53.1,37.0,55,30.20,10.0,WNW,5.8,-,N/A,,Clear,300,2014-05-14 14:35:00
9:55 AM,54.1,36.9,52,30.20,10.0,WSW,6.9,-,N/A,,Clear,240,2014-05-14 14:55:00
10:15 AM,54.3,36.1,50,30.20,10.0,West,9.2,16.1,N/A,,Clear,270,2014-05-14 15:15:00
10:35 AM,55.0,35.8,48,30.19,10.0,WSW,8.1,-,N/A,,Clear,240,2014-05-14 15:35:00
10:55 AM,56.1,34.5,44,30.19,10.0,West,9.2,-,N/A,,Clear,270,2014-05-14 15:55:00
11:15 AM,57.4,34.5,42,30.18,10.0,West,9.2,16.1,N/A,,Clear,260,2014-05-14 16:15:00
11:55 AM,57.4,31.3,37,30.17,10.0,NW,4.6,-,N/A,,Scattered Clouds,310,2014-05-14 16:55:00
12:15 PM,58.5,32.7,38,30.17,10.0,West,5.8,-,N/A,,Clear,260,2014-05-14 17:15:00
12:35 PM,58.3,31.1,36,30.16,10.0,West,10.4,-,N/A,,Clear,270,2014-05-14 17:35:00
12:55 PM,59.0,31.8,36,30.16,10.0,West,8.1,-,N/A,,Clear,280,2014-05-14 17:55:00
1:15 PM,59.7,31.1,34,30.16,10.0,WSW,5.8,-,N/A,,Clear,250,2014-05-14 18:15:00
1:35 PM,59.9,30.7,33,30.16,10.0,West,6.9,-,N/A,,Scattered Clouds,280,2014-05-14 18:35:00
1:55 PM,61.0,31.1,32,30.14,10.0,West,6.9,-,N/A,,Scattered Clouds,280,2014-05-14 18:55:00
2:15 PM,60.8,30.6,32,30.13,10.0,NW,3.5,-,N/A,,Scattered Clouds,310,2014-05-14 19:15:00
2:35 PM,61.3,30.7,32,30.13,10.0,North,4.6,-,N/A,,Scattered Clouds,350,2014-05-14 19:35:00
2:55 PM,61.7,29.3,29,30.14,10.0,SW,5.8,-,N/A,,Clear,230,2014-05-14 19:55:00
3:15 PM,61.5,30.6,31,30.12,10.0,West,9.2,-,N/A,,Clear,280,2014-05-14 20:15:00
3:35 PM,62.1,29.8,30,30.11,10.0,Calm,Calm,-,N/A,,Clear,0,2014-05-14 20:35:00
3:55 PM,61.2,27.9,28,30.11,10.0,WSW,3.5,-,N/A,,Clear,250,2014-05-14 20:55:00
4:15 PM,60.8,28.8,30,30.11,10.0,West,4.6,-,N/A,,Scattered Clouds,280,2014-05-14 21:15:00
4:35 PM,61.5,30.2,31,30.10,10.0,NNW,8.1,-,N/A,,Scattered Clouds,330,2014-05-14 21:35:00
4:55 PM,60.8,29.8,31,30.10,10.0,WNW,6.9,-,N/A,,Clear,290,2014-05-14 21:55:00
5:15 PM,60.8,29.1,30,30.09,10.0,NNW,8.1,-,N/A,,Clear,330,2014-05-14 22:15:00
5:35 PM,60.4,29.5,31,30.10,10.0,WNW,8.1,-,N/A,,Clear,300,2014-05-14 22:35:00
5:55 PM,59.7,28.6,31,30.10,10.0,NNW,6.9,-,N/A,,Clear,330,2014-05-14 22:55:00
6:15 PM,59.4,29.1,32,30.09,10.0,NNW,6.9,-,N/A,,Scattered Clouds,330,2014-05-14 23:15:00
6:35 PM,59.4,30.9,34,30.09,10.0,NW,6.9,-,N/A,,Mostly Cloudy,320,2014-05-14 23:35:00
6:55 PM,59.0,29.7,33,30.09,10.0,NNW,6.9,-,N/A,,Scattered Clouds,330,2014-05-14 23:55:00
7:15 PM,58.8,28.0,31,30.09,10.0,NNW,8.1,-,N/A,,Clear,340,2014-05-15 00:15:00
7:35 PM,58.8,28.2,31,30.09,10.0,North,5.8,-,N/A,,Scattered Clouds,350,2014-05-15 00:35:00
7:55 PM,58.1,31.1,36,30.07,10.0,NNE,15.0,-,N/A,,Scattered Clouds,30,2014-05-15 00:55:00
8:15 PM,55.9,38.5,52,30.09,10.0,East,9.2,-,N/A,,Scattered Clouds,100,2014-05-15 01:15:00
8:35 PM,53.8,39.4,58,30.10,10.0,ESE,6.9,-,N/A,,Mostly Cloudy,110,2014-05-15 01:35:00
8:55 PM,52.3,39.9,63,30.10,10.0,East,4.6,-,N/A,,Mostly Cloudy,90,2014-05-15 01:55:00
9:15 PM,52.2,40.8,65,30.11,10.0,East,6.9,-,N/A,,Mostly Cloudy,100,2014-05-15 02:15:00
9:35 PM,51.6,39.6,63,30.11,10.0,East,4.6,-,N/A,,Overcast,80,2014-05-15 02:35:00
9:55 PM,52.0,40.3,64,30.10,10.0,East,3.5,-,N/A,,Overcast,100,2014-05-15 02:55:00
10:15 PM,52.2,40.1,64,30.10,10.0,ENE,10.4,18.4,N/A,,Overcast,70,2014-05-15 03:15:00
10:35 PM,51.8,38.8,61,30.10,10.0,ENE,12.7,-,N/A,,Overcast,70,2014-05-15 03:35:00
10:55 PM,51.8,37.6,58,30.11,10.0,East,18.4,24.2,N/A,,Overcast,80,2014-05-15 03:55:00
11:15 PM,50.5,36.9,59,30.13,10.0,ENE,15.0,20.7,N/A,,Overcast,70,2014-05-15 04:15:00
11:35 PM,50.0,34.0,54,30.13,10.0,ENE,15.0,-,N/A,,Mostly Cloudy,60,2014-05-15 04:35:00
11:55 PM,49.5,33.8,55,30.13,10.0,NE,13.8,-,N/A,,Overcast,50,2014-05-15 04:55:00